COSMOS 1275 DEB, 12745

Orbit data source: Space-Track

COSMOS 1275 DEB, 12745 is space debris in LEO originally from a launch on Thu, 04 Jun 1981 UTC launched from the Plesetsk Missile And Space Complex (PKMTR). Debris objects in space refer to the collection of defunct objects orbiting the Earth. Examples of debris include non-operational satellites, rocket bodies, and fragments generated from explosions, collisions, or faulty payload assembly.

Loading next visibility...
Identifier
12745, 1981-053CN
Orbit
LEO
Country
Flag of CISCIS
Related business
Manufacturer
Unknown
Mission
Spacecraft
Bus & Motor
Unknown
Mass
Unknown
Launch date (UTC)
1981-06-04 (44 years ago)
Launch vehicle
Unknown
Launch site
Plesetsk Missile And Space Complex (PKMTR)
Object type
Payload
Rocket body
Debris
Shape & HBR
Unknown shape, 0.1 m
Radar Cross Section
Small (<0.1 m²)

Expand to show TLE details & history
Last TLE update: 13 hours ago

TLE from 13 hours ago
0 COSMOS 1275 DEB
1 12745U 81053CN  25291.30719659  .00001076  00000-0  83689-3 0  9996
2 12745  83.1365 309.0380 0042062 268.3479 107.7620 13.91199284225440
Epoch: 2025-10-18T07:22Z
TLE epoch observation values (Epoch: 2025-10-18T07:22:21.785Z)
Latitude
16.42899°
Longitude
173.43049°
Altitude
936.203 km
Speed
7.38 km/s
True Right ascension
20h 44m 14s
True Declination
16° 20' 18"
Sunlit
Object was in daylight at epoch
Visualization orbit readout
Latitude
Unknown
Longitude
Unknown
Altitude
Unknown
Speed
Unknown
Apparent Right ascension
Unknown
Apparent Declination
Unknown
Sunlit
N/A
Visualization observer readout
Local Sidereal Time
15:07:18
Azimuth
Unknown
Elevation
Unknown
Doppler factor
Unknown
Orbital elements
Apogee altitude
952.254 km
Perigee altitude
890.846 km
Semi-major axis
7,299.687 km
Eccentricity
0.00421
Inclination
83.1365°
RAAN
309.038°
Arg. of periapsis
268.3479°
True anomaly
108.22028°
Mean anomaly
107.762°
Eccentric anomaly
107.99121°
Mean motion
3.48006 °/min
Orbital period
103.45 mins
BSTAR
0.00083689
Loading maneuver chart data...
Computing Atmospheric mass density...

Documentation

Showing up to 5 results
|